Orbital Elements at Epoch 2459000.5 (2020-May-31.0) TDB
Reference: JPL 15 (heliocentric ecliptic J2000)
Element | Value | Uncertainty (1-sigma) | Units |
e | .1159460745735513 | 8.7767e-08 | |
a | 3.156455574491456 | 4.9409e-08 | au |
q | 2.790476941063369 | 2.8537e-07 | au |
i | 9.715045361878689 | 9.859e-06 | deg |
node | 173.6492541697343 | 3.0238e-05 | deg |
peri | 213.2717973157224 | 4.0178e-05 | deg |
M | 158.6976617674832 | 2.5823e-05 | deg |
tp | 2458097.545272953486 (2017-Dec-10.04527295) | 0.00014132 | TDB |
period | 2048.320675404872 5.61 | 4.8094e-05 1.317e-07 | d yr |
n | .1757537305182169 | 4.1267e-09 | deg/d |
Q | 3.522434207919544 | 5.5137e-08 | au |
|
| | Orbit Determination Parameters
Additional Information
|